Погода в Кизляре

Погода в Кизляре : погода сейчас, прогноз погоды и архив. Всё, что Вы хотите узнать о погоде в Кизляре!

Поиск расширенной информации на нашем сайте:

Другие новости

Новости СМИ2

Главная страница сайта

Новости сайта

02.10.2013

Напоминаем, что на нашем новом сайте вы можете получить высокодетализированные прогнозы погоды по пунктам России, СНГ и мира (включающие важные для авиации метеовеличины, такие как направление и скорость ветра, видимость, явления погоды, количество и форма облачности, нижняя и верхняя граница облачности), а также ознакомиться с разнообразными материалами по авиационной метеорологии и подборкой полезных ссылок на эту тему.

Сайт Метеоцентр.Азия посвящён разработке технологий оптимизации авиаметеорологического обслуживания, включая проектирование и перспективное создание нескольких автоматизированных авиаметеорологических систем:
- система выпуска высокодетальных прогностических карт явлений погоды для нижнего воздушного пространства по России и ближнему зарубежью;
- система верификации прогнозов TAF (выпускаемых синоптиками официальных АМСГ РФ и ближнего зарубежья) и AUTOTAF (выпускаемых сайтом Метеоцентр.Азия) - выявление ошибок, онлайн-сопоставление с фактической погодой METAR, автоматическое внесение коррективов в прогнозы при резком отклонении фактической погоды от прогноза, подсчёт оправдываемости прогнозов по элементам и в целом;
- система обработки, анализа и отображения авиаметеорологической информации для применения провайдерами метеорологической информации.

Рекомендуем: Школа трейдинга на nyse bcs.ru/broker/global/bcs-laser.asp.

Погода в Кизляре - сегодня

Время (UTC), дата Ветер
(°,м/с) 
Видим.   Явления Облачность Т
(°С)
Тd
(°С)
f(%) Тe
(°С)
Pmin
(гПа)
dP
(гПа)
Po
(мм)
O2
(г/м3)
Тmin Tmax R s Состояние
почвы
06 24.02.17 210 (ЮЗ) 4000 м  слаб. дождь  10/10 600 м 
[Frnb|Ns]
+5.4 +5.3 99 +5  1016.7  2.8  763  301           
09 24.02.17 230 (ЮЗ) 10 км  {дождь}  9/9 600 м средняя 
[Sc|Ac trans]
+9.6 +6.6 82 +10  1017.1  0.5  763  296           
12 24.02.17 270 (З) 10 км  {дождь}  8/8 600 м средняя, верхняя 
[Sc|Ac trans|Ci fib]
+12.1 +5 62 +13  1016.3  -0.8  763  293           
15 24.02.17 120 (ЮВ) 10 км    8/8 600 м средняя 
[Sc|Ac trans]
+9.5 +4.8 72 +10  1017  0.8  763  296    +13.2     
18 24.02.17 130 (ЮВ) 10 км    10/10 600 м 
[Sc]
+8.1 +4.5 78 +8  1017.7  0.6  764  298           
21 24.02.17 120 (ЮВ) 10 км    3/0 средняя 
[Ac trans]
+4.8 +2.8 87 +4  1017.3  -0.3  763  302           
00 25.02.17 110 (В) 4000 м  дымка  ясно 
+2.8 +2.2 96 +1  1017.2  -0.2  763  304           
03 25.02.17 100 (В) 10 км    3/0 средняя 
[Ac trans]
+3.9 +0.8 80 +3  1017  -0.1  763  303  +2.2         
06 25.02.17 120 (ЮВ) 6-10{10}  10 км    3/0 средняя 
[Ac trans]
+13.8 +2.5 46 +13  1017.2  0.2  763  292           
09 25.02.17 120 (ЮВ) 9-12{13}  10 км    3/0 средняя 
[Ac trans]
+20 +2.9 32 +20  1015.5  -1.7  762  286           
12 25.02.17 110 (В) 9-12{14}  10 км    ясно 
+17.8 +3.1 37 +17  1013.5  -2.1  761  287           
15 25.02.17 110 (В) 5{12}  10 км    6/6 600 м средняя 
[Sc|Ac trans]
+8.5 +3.1 69 +7  1012.5  -0.9  760  296    +20.6       
18 25.02.17 100 (В) 4000 м  дымка  4/4 600 м средняя 
[Sc|Ac trans]
+5.4 +4.8 96 +3  1010.1  -2.4  758  299           
21 25.02.17 130 (ЮВ) 4000 м  дымка  4/4 600 м средняя 
[Sc|Ac trans]
+4 +4 100 +3  1008.3  -1.7  757  300           
00 26.02.17 300 (СЗ) 4000 м  дымка  4/4 600 м средняя 
[Sc|Ac trans]
+2.7 +2.7 100 +2  1009.7  1.4  758  302           
03 26.02.17 270 (З) 4000 м  дымка  8/8 600 м средняя 
[Sc|Ac trans]
+3.7 +3.4 98 +2  1015.5  5.8  762  302  +1.9         
06 26.02.17 290 (З) 8-13{15}  10 км    10/10 600 м 
[Sc]
+4 +0.2 76 +1  1021.3  5.7  766  304           
09 26.02.17 290 (З) 7-12{16}  н/о    н/о 
+3 -2.9 65 1025.4  4.1  770  307           
12 26.02.17 270 (З) 7-11{13}  10 км    10/10 600 м 
[Sc]
+4.1 -5.7 49 +1  1026.6  1.2  770  306           
15 26.02.17 270 (З) 2{11}  10 км    4/4 600 м средняя 
[Sc|Ac trans]
+2.7 -6.9 49 +2  1027.4  0.8  771  308    +6.2       
18 26.02.17 240 (ЮЗ) 10 км    ясно 
-1.4 -8.4 59 -1  1028.3  0.9  772  313           
21 26.02.17 240 (ЮЗ) 10 км    ясно 
-3.3 -9.4 63 -3  1028.1  0.9  772  316           
00 27.02.17 300 (СЗ) 10 км    4/4 600 м средняя 
[Sc|Ac trans]
-2 -7.5 66 -1  1027.7  -0.4  771  314           
03 27.02.17 170 (Ю) 10 км    10/10 600 м 
[Sc]
-3.6 -7.3 75 -3  1028.2  0.5  772  316  -4.1         
06 27.02.17 140 (ЮВ) 10 км    4/0 средняя 
[Ac trans]
+4 -6 48 +4  1027.7  -0.5  771  307           
Время (UTC), дата Ветер
(°,м/с) 
Видим.   Явления Облачность Т
(°С)
Тd
(°С)
f(%) Тe
(°С)
Pmin
(гПа)
dP
(гПа)
Po
(мм)
O2
(г/м3)
Тmin Tmax R s Состояние
почвы

Для получения пояснительной информации подведите курсор к названию столбца.

ПОГОДА в Кизляре - архив

Всё, что Вы хотите узнать о погоде в Кизляре - удобно и подробно!

Выберите нужную дату (начиная с 1 января 2015* года) и нажмите кнопку "Найти".
Будут отображены архивные сводки погоды по пункту Кизляр, начиная с указанной даты.


Отображать данные в формате CSV (для использования в таблицах Excel)


Внимание! Наш архив погоды предназначен исключительно для личного некоммерческого использования в познавательных целях. Если Вам необходимы официальные справки о состоянии погоды (для производственных, юридических, коммерческих и т.п. целей), обращайтесь в органы Росгидромета.

*Примечание: данная дата относится к архиву по метеостанциям СССР (Россия, СНГ, Балтия).
Архив по метеостанциям Зарубежной Европы и Азии (кроме Китая) хранится 10 дней, по другим регионам земного шара (Китай, Африка, Америка, Австралия, Океания) - 1 день.

Кизляр - район местоположения метеостанции


Название, широта, долгота, высота метеостанции:
Кизляр 43.8°ш. 46.7°д. -5 м над ур. моря [Российская Федерация]

Дополнительная информация

В oтличие oт бoльшинства пoгoдных сайтoв мы публикуем пoдрoбную метеoинфoрмацию в детальнoм прoфессиoнальнoм фoрмате.

Характеристики температуры и влажнoсти вoздуха измеряются на высoте 2 м в тени вдали oт зданий и деревьев.
Скoрoсть ветра измеряется на высoте 10 м (на урoвне рoста челoвека скoрoсть ветра ниже в 1.5-2 раза). Если метеoстанция нахoдится в гoрoде или в лесу, тo скoрoсть ветра занижена на 2-4 м/с пo сравнению с oткрытым местoм. Скoрoсть ветра над акватoриями крупных рек и oзёр, а также на вершинах хoлмoв на 2-5 м/с выше, чем в oбычных услoвиях.
Атмoсфернoе давление в разных тoчках местнoсти мoжет значительнo oтличаться oт давления на метеoстанции, в зависимoсти oт услoвий рельефа (при пoдъёме на 10 м давление пoнижается примернo на 1 мм рт.ст.).